sat.trackr.live / text

‹ back to catalog

SITRO-AIS-58

NORAD 67258 · 2025-313L

PAYLOAD ACTIVE UNKNOWN

§ Identity

Operator
Country
CIS
Launch date
2025-12-28
Launch site
VOSTO
Launch vehicle
Mass (kg)
RCS (m²)

External: N2YO · Heavens-Above · Gunter

§ Orbital elements

Epoch: 2026-05-25T03:29:31.931808Z

Period
94.57 min
Inclination
97.3933°
Eccentricity
0.0017054
Mean motion
15.22726705 rev/d
Perigee alt
485.9 km
Apogee alt
509.3 km
Semi-major
6,875.8 km
B*
3.8764e-4
RAAN
220.1102°
Arg perigee
86.9698°
Mean anomaly
273.3490°
Rev number
2,244

§ Raw data

SITRO-AIS-581 67258U 25313L   26145.14550847  .00009011  00000+0  38764-3 0  99952 67258  97.3933 220.1102 0017054  86.9698 273.3490 15.22726705 22442

JSON: /api/v1/satellites/67258 · /tle

For live sub-satellite position, see the globe view (requires WebGL).

§ Visibility from observer

Set your observer location to see the next 7 days of passes ≥ 10°. The values pass through the URL so the page stays shareable.

No JS? Fill the form by hand. The geolocation button needs JavaScript.